STARLINK-31206, 59028

Orbit data source: Space-Track

STARLINK-31206, 59028 is a payload satellite owned by SpaceX/Seattle (US) in LEO that was launched on Sun, 25 Feb 2024 UTC via an FALCON 9 launch vehicle from the Air Force Eastern Test Range (AFETR). Payload-class satellites include a variety of spacecraft equipped with specific instruments for various scientific and technological missions. These include communications satellites like Starlink; space stations such as the ISS; scientific satellites like the Hubble; Earth observation satellites from companies like Planet Labs, Umbra, and HawkEye 360; GPS; miniature CubeSats for education and research; and military/defense satellites.

Loading next visibility...
Identifier
59028, 2024-038F
Orbit
LEO
Country
Flag of USUS
Related business
Manufacturer
SpaceX/Seattle
Mission
Operational Commercial Communications
Bus & Motor
STARLINK V2M, Unknown motor
Mass
730 kg wet, ~700 kg dry
Launch date (UTC)
2024-02-25 (2 years ago)
Launch vehicle
FALCON 9
Launch site
Air Force Eastern Test Range (AFETR)
Object type
Payload
Rocket body
Debris
Shape & HBR
Box + 2 Pan, 17.7 m
Radar Cross Section
33.884 m², Large (>1 m²)

Expand to show TLE details & history
Last TLE update: 23 hours ago

TLE from 23 hours ago
0 STARLINK-31206
1 59028U 24038F   25348.67230881  .00003292  00000-0  12897-3 0  9994
2 59028  43.0017  82.1482 0000991 235.7840 124.2918 15.27611120102527
Epoch: 2025-12-14T16:08Z
TLE epoch observation values (Epoch: 2025-12-14T16:08:07.481Z)
Latitude
Longitude
116.53517°
Altitude
483.115 km
Speed
7.625 km/s
True Right ascension
05h 28m 35s
True Declination
0° 00' 00"
Sunlit
Object was in full shadow at epoch
Visualization orbit readout
Latitude
Unknown
Longitude
Unknown
Altitude
Unknown
Speed
Unknown
Apparent Right ascension
Unknown
Apparent Declination
Unknown
Sunlit
N/A
Visualization observer readout
Local Sidereal Time
13:26:10
Azimuth
Unknown
Elevation
Unknown
Doppler factor
Unknown
Orbital elements
Apogee altitude
485.581 km
Perigee altitude
484.221 km
Semi-major axis
6,863.038 km
Eccentricity
0.0001
Inclination
43.0017°
RAAN
82.1482°
Arg. of periapsis
235.784°
True anomaly
124.30118°
Mean anomaly
124.2918°
Eccentric anomaly
124.29649°
Mean motion
3.81741 °/min
Orbital period
94.3 mins
BSTAR
0.00012897
Loading maneuver chart data...
Computing Atmospheric mass density...
Loading historical data...
Loading historical data...
Loading historical data...
Loading historical data...
Loading historical data...
Loading historical data...
Loading historical data...

Documentation

Showing up to 5 results
|